User: anonymous   Login
Location: Albany
(35.0000°S, 118.0000°E)
Time: 19:12:17
(UTC-04:00)
Language:

ADEOS Rocket - Orbit

View from above orbital plane
View from above orbital plane
View from above satellite
View from above satellite

Ground track
Ground track

The orbit data is extracted from the following two-line orbital elements,

1 24279U 96046C   16237.45307394 -.00000024  00000-0  17102-4 0  9995
2 24279  98.7083 212.7012 0299644 325.6098 187.7504 13.47055967984294
Epoch (UTC): 24 August 2016 10:52:25
Eccentricity: 0.0299644
inclination: 98.7083°
perigee height: 859 km
apogee height: 1306 km
right ascension of ascending node: 212.7012°
argument of perigee: 325.6098°
revolutions per day: 13.47055967
mean anomaly at epoch: 187.7504°
orbit number at epoch: 98429

The dashed part of the orbit path shows where the satellite is in the earth's shadow,  

DLR